Time,TemperatureF,DewpointF,PressureIn,WindDirection,WindDirectionDegrees,WindSpeedMPH,WindSpeedGustMPH,Humidity,HourlyPrecipIn,Conditions,Clouds,dailyrainin,SolarRadiationWatts/m^2,SoftwareType,DateUTC
2013-08-24 00:01:00,62.6,60.3,30.10,NNE,31,0.0,0.0,92,0.00,,,0.00,0.0,meteohub,2013-08-24 04:01:00,
2013-08-24 00:02:00,62.6,60.3,30.10,NNE,31,0.0,0.0,92,0.00,,,0.00,0.0,meteohub,2013-08-24 04:02:00,
2013-08-24 00:07:00,62.2,59.9,30.10,NNE,31,0.0,0.0,92,0.00,,,0.00,0.0,meteohub,2013-08-24 04:07:00,
2013-08-24 00:13:00,62.1,59.7,30.11,NNE,31,0.0,3.0,92,0.00,,,0.00,0.0,meteohub,2013-08-24 04:13:00,
2013-08-24 00:18:00,62.1,59.7,30.11,NNE,31,3.0,3.0,92,0.00,,,0.00,0.0,meteohub,2013-08-24 04:18:00,
2013-08-24 00:23:00,62.1,59.7,30.10,North,5,6.0,6.0,92,0.00,,,0.00,0.0,meteohub,2013-08-24 04:23:00,
2013-08-24 00:28:00,62.1,59.4,30.11,North,0,5.0,6.0,91,0.00,,,0.00,0.0,meteohub,2013-08-24 04:28:00,
2013-08-24 00:33:00,62.2,59.2,30.11,NNE,19,0.0,7.0,90,0.00,,,0.00,0.0,meteohub,2013-08-24 04:33:00,
2013-08-24 00:38:00,62.4,59.2,30.11,North,355,5.0,7.0,89,0.00,,,0.00,0.0,meteohub,2013-08-24 04:38:00,
2013-08-24 00:43:00,62.4,59.2,30.11,North,355,4.0,7.0,89,0.00,,,0.00,0.0,meteohub,2013-08-24 04:43:00,
2013-08-24 00:49:00,62.2,58.6,30.12,North,355,4.0,8.0,88,0.00,,,0.00,0.0,meteohub,2013-08-24 04:49:00,
2013-08-24 00:54:00,62.1,58.5,30.12,North,355,4.0,8.0,88,0.00,,,0.00,0.0,meteohub,2013-08-24 04:54:00,
2013-08-24 00:59:00,62.1,58.5,30.12,North,355,4.0,8.0,88,0.00,,,0.00,0.0,meteohub,2013-08-24 04:59:00,
2013-08-24 01:04:00,62.1,58.1,30.12,North,355,1.0,6.0,87,0.00,,,0.00,0.0,meteohub,2013-08-24 05:04:00,
2013-08-24 01:09:00,61.9,57.9,30.12,North,355,4.0,5.0,87,0.00,,,0.00,0.0,meteohub,2013-08-24 05:09:00,
2013-08-24 01:14:00,61.7,58.1,30.12,North,355,2.0,5.0,88,0.00,,,0.00,0.0,meteohub,2013-08-24 05:14:00,
2013-08-24 01:20:00,61.5,57.9,30.12,North,355,4.0,5.0,88,0.00,,,0.00,0.0,meteohub,2013-08-24 05:20:00,
2013-08-24 01:25:00,61.3,57.7,30.12,North,355,4.0,4.0,88,0.00,,,0.00,0.0,meteohub,2013-08-24 05:25:00,
2013-08-24 01:30:00,61.2,57.6,30.12,North,355,2.0,4.0,88,0.00,,,0.00,0.0,meteohub,2013-08-24 05:30:00,
2013-08-24 01:35:00,61.0,57.4,30.12,North,0,2.0,6.0,88,0.00,,,0.00,0.0,meteohub,2013-08-24 05:35:00,
2013-08-24 01:40:00,61.0,57.4,30.12,North,355,6.0,6.0,88,0.00,,,0.00,0.0,meteohub,2013-08-24 05:40:00,
2013-08-24 01:45:00,61.0,57.4,30.12,NNE,14,3.0,7.0,88,0.00,,,0.00,0.0,meteohub,2013-08-24 05:45:00,
2013-08-24 01:50:00,61.2,57.6,30.12,NE,35,2.0,7.0,88,0.00,,,0.00,0.0,meteohub,2013-08-24 05:50:00,
2013-08-24 01:56:00,61.3,57.4,30.12,North,5,2.0,7.0,87,0.00,,,0.00,0.0,meteohub,2013-08-24 05:56:00,
2013-08-24 02:01:00,61.3,57.4,30.13,North,10,4.0,7.0,87,0.00,,,0.00,0.0,meteohub,2013-08-24 06:01:00,
2013-08-24 02:06:00,61.5,57.4,30.13,North,9,2.0,6.0,86,0.00,,,0.00,0.0,meteohub,2013-08-24 06:06:00,
2013-08-24 02:11:00,61.5,57.0,30.13,NE,34,3.0,6.0,85,0.00,,,0.00,0.0,meteohub,2013-08-24 06:11:00,
2013-08-24 02:16:00,61.3,56.8,30.13,North,350,5.0,5.0,85,0.00,,,0.00,0.0,meteohub,2013-08-24 06:16:00,
2013-08-24 02:21:00,61.5,57.0,30.13,North,10,3.0,8.0,85,0.00,,,0.00,0.0,meteohub,2013-08-24 06:21:00,
2013-08-24 02:27:00,61.5,57.0,30.13,NNW,348,8.0,9.0,85,0.00,,,0.00,0.0,meteohub,2013-08-24 06:27:00,
2013-08-24 02:32:00,61.5,57.0,30.13,North,355,2.0,10.0,85,0.00,,,0.00,0.0,meteohub,2013-08-24 06:32:00,
2013-08-24 02:37:00,61.7,56.8,30.14,North,355,5.0,10.0,84,0.00,,,0.00,0.0,meteohub,2013-08-24 06:37:00,
2013-08-24 02:42:00,61.5,56.3,30.14,North,5,5.0,10.0,83,0.00,,,0.00,0.0,meteohub,2013-08-24 06:42:00,
2013-08-24 02:47:00,61.7,56.5,30.14,North,355,11.0,11.0,83,0.00,,,0.00,0.0,meteohub,2013-08-24 06:47:00,
2013-08-24 02:52:00,61.7,56.5,30.14,NNE,15,5.0,12.0,83,0.00,,,0.00,0.0,meteohub,2013-08-24 06:52:00,
2013-08-24 02:57:00,61.9,56.3,30.14,North,0,6.0,12.0,82,0.00,,,0.00,0.0,meteohub,2013-08-24 06:57:00,
2013-08-24 03:02:00,61.9,56.3,30.14,NNE,21,6.0,12.0,82,0.00,,,0.00,0.0,meteohub,2013-08-24 07:02:00,
2013-08-24 03:07:00,61.9,55.9,30.15,NNE,29,6.0,13.0,81,0.00,,,0.00,0.0,meteohub,2013-08-24 07:07:00,
2013-08-24 03:12:00,61.9,55.9,30.15,North,355,5.0,13.0,81,0.00,,,0.00,0.0,meteohub,2013-08-24 07:12:00,
2013-08-24 03:17:00,61.7,55.4,30.15,NNW,342,4.0,12.0,80,0.00,,,0.00,0.0,meteohub,2013-08-24 07:17:00,
2013-08-24 03:22:00,61.5,55.2,30.15,NNE,20,4.0,10.0,80,0.00,,,0.00,0.0,meteohub,2013-08-24 07:22:00,
2013-08-24 03:27:00,61.3,55.0,30.15,NNW,333,8.0,10.0,80,0.00,,,0.00,0.0,meteohub,2013-08-24 07:27:00,
2013-08-24 03:32:00,61.2,54.9,30.15,NNW,341,7.0,10.0,80,0.00,,,0.00,0.0,meteohub,2013-08-24 07:32:00,
2013-08-24 03:37:00,61.2,54.9,30.15,NNW,347,7.0,10.0,80,0.00,,,0.00,0.0,meteohub,2013-08-24 07:37:00,
2013-08-24 03:42:00,61.0,54.7,30.15,NNW,327,5.0,10.0,80,0.00,,,0.00,0.0,meteohub,2013-08-24 07:42:00,
2013-08-24 03:48:00,61.0,54.7,30.16,North,5,7.0,10.0,80,0.00,,,0.00,0.0,meteohub,2013-08-24 07:48:00,
2013-08-24 03:53:00,60.6,54.5,30.16,North,350,5.0,10.0,80,0.00,,,0.00,0.0,meteohub,2013-08-24 07:53:00,
2013-08-24 03:58:00,60.4,54.3,30.16,North,9,7.0,9.0,80,0.00,,,0.00,0.0,meteohub,2013-08-24 07:58:00,
2013-08-24 04:03:00,60.4,54.3,30.17,North,9,3.0,10.0,80,0.00,,,0.00,0.0,meteohub,2013-08-24 08:03:00,
2013-08-24 04:08:00,60.4,54.3,30.17,North,355,5.0,11.0,80,0.00,,,0.00,0.0,meteohub,2013-08-24 08:08:00,
2013-08-24 04:13:00,60.4,54.0,30.17,North,9,6.0,11.0,79,0.00,,,0.00,0.0,meteohub,2013-08-24 08:13:00,
2013-08-24 04:18:00,60.3,53.8,30.17,North,0,5.0,11.0,79,0.00,,,0.00,0.0,meteohub,2013-08-24 08:18:00,
2013-08-24 04:23:00,60.3,53.8,30.17,North,355,6.0,11.0,79,0.00,,,0.00,0.0,meteohub,2013-08-24 08:23:00,
2013-08-24 04:29:00,60.3,53.8,30.17,NNW,330,6.0,11.0,79,0.00,,,0.00,0.0,meteohub,2013-08-24 08:29:00,
2013-08-24 04:34:00,60.3,53.8,30.17,North,355,6.0,12.0,79,0.00,,,0.00,0.0,meteohub,2013-08-24 08:34:00,
2013-08-24 04:39:00,60.3,53.8,30.18,NNE,30,5.0,12.0,79,0.00,,,0.00,0.0,meteohub,2013-08-24 08:39:00,
2013-08-24 04:44:00,60.1,53.6,30.18,NNE,22,6.0,11.0,79,0.00,,,0.00,0.0,meteohub,2013-08-24 08:44:00,
2013-08-24 04:49:00,60.1,53.6,30.18,NNE,25,5.0,10.0,79,0.00,,,0.00,0.0,meteohub,2013-08-24 08:49:00,
2013-08-24 04:54:00,59.7,53.2,30.18,NNE,15,6.0,10.0,79,0.00,,,0.00,0.0,meteohub,2013-08-24 08:54:00,
2013-08-24 04:59:00,59.7,53.2,30.18,North,5,5.0,9.0,79,0.00,,,0.00,0.0,meteohub,2013-08-24 08:59:00,
2013-08-24 05:04:00,59.5,53.1,30.18,NNE,17,3.0,10.0,79,0.00,,,0.00,0.0,meteohub,2013-08-24 09:04:00,
2013-08-24 05:10:00,59.5,53.1,30.18,NNE,16,4.0,10.0,79,0.00,,,0.00,0.0,meteohub,2013-08-24 09:10:00,
2013-08-24 05:15:00,59.4,52.9,30.18,North,5,5.0,10.0,79,0.00,,,0.00,0.0,meteohub,2013-08-24 09:15:00,
2013-08-24 05:20:00,59.2,52.7,30.19,NE,40,5.0,10.0,79,0.00,,,0.00,0.0,meteohub,2013-08-24 09:20:00,
2013-08-24 05:25:00,59.2,52.7,30.19,North,11,6.0,10.0,79,0.00,,,0.00,0.0,meteohub,2013-08-24 09:25:00,
2013-08-24 05:30:00,59.2,53.1,30.19,North,11,3.0,9.0,80,0.00,,,0.00,0.0,meteohub,2013-08-24 09:30:00,
2013-08-24 05:35:00,59.2,53.1,30.19,North,10,2.0,9.0,80,0.00,,,0.00,0.0,meteohub,2013-08-24 09:35:00,
2013-08-24 05:40:00,58.8,52.7,30.19,NNE,31,4.0,10.0,80,0.00,,,0.00,0.0,meteohub,2013-08-24 09:40:00,
2013-08-24 05:45:00,58.8,52.7,30.20,NNW,348,4.0,10.0,80,0.00,,,0.00,0.0,meteohub,2013-08-24 09:45:00,
2013-08-24 05:50:00,58.6,52.5,30.20,North,355,6.0,9.0,80,0.00,,,0.00,0.0,meteohub,2013-08-24 09:50:00,
2013-08-24 05:56:00,58.6,52.5,30.20,North,355,8.0,10.0,80,0.00,,,0.00,0.0,meteohub,2013-08-24 09:56:00,
2013-08-24 06:01:00,58.5,52.7,30.20,North,0,3.0,10.0,81,0.00,,,0.00,0.0,meteohub,2013-08-24 10:01:00,
2013-08-24 06:06:00,58.5,52.7,30.21,North,9,5.0,10.0,81,0.00,,,0.00,0.0,meteohub,2013-08-24 10:06:00,
2013-08-24 06:11:00,58.5,52.7,30.21,North,5,8.0,10.0,81,0.00,,,0.00,0.0,meteohub,2013-08-24 10:11:00,
2013-08-24 06:16:00,58.5,52.7,30.21,NE,53,5.0,10.0,81,0.00,,,0.00,5.0,meteohub,2013-08-24 10:16:00,
2013-08-24 06:21:00,58.5,52.7,30.21,NNE,23,5.0,11.0,81,0.00,,,0.00,9.0,meteohub,2013-08-24 10:21:00,
2013-08-24 06:26:00,58.5,52.7,30.21,NNW,345,5.0,11.0,81,0.00,,,0.00,12.0,meteohub,2013-08-24 10:26:00,
2013-08-24 06:31:00,58.5,52.7,30.22,North,351,5.0,11.0,81,0.00,,,0.00,14.0,meteohub,2013-08-24 10:31:00,
2013-08-24 06:36:00,58.5,52.7,30.22,North,355,6.0,10.0,81,0.00,,,0.00,16.0,meteohub,2013-08-24 10:36:00,
2013-08-24 06:42:00,58.6,52.9,30.22,North,5,8.0,10.0,81,0.00,,,0.00,18.0,meteohub,2013-08-24 10:42:00,
2013-08-24 06:47:00,58.6,52.9,30.22,NNE,22,7.0,13.0,81,0.00,,,0.00,19.0,meteohub,2013-08-24 10:47:00,
2013-08-24 06:52:00,58.8,53.1,30.22,North,5,7.0,13.0,81,0.00,,,0.00,46.0,meteohub,2013-08-24 10:52:00,
2013-08-24 06:57:00,59.2,53.4,30.22,NNE,17,7.0,13.0,81,0.00,,,0.00,58.0,meteohub,2013-08-24 10:57:00,
2013-08-24 07:02:00,59.4,53.2,30.23,North,11,8.0,11.0,80,0.00,,,0.00,70.0,meteohub,2013-08-24 11:02:00,
2013-08-24 07:07:00,59.5,53.4,30.23,North,9,5.0,13.0,80,0.00,,,0.00,86.0,meteohub,2013-08-24 11:07:00,
2013-08-24 07:12:00,59.9,53.4,30.23,NNE,28,4.0,13.0,79,0.00,,,0.00,102.0,meteohub,2013-08-24 11:12:00,
2013-08-24 07:17:00,60.3,53.8,30.23,NNE,20,3.0,12.0,79,0.00,,,0.00,120.0,meteohub,2013-08-24 11:17:00,
2013-08-24 07:22:00,60.6,53.8,30.23,NNE,19,5.0,11.0,78,0.00,,,0.00,137.0,meteohub,2013-08-24 11:22:00,
2013-08-24 07:27:00,61.0,53.8,30.23,North,355,6.0,10.0,77,0.00,,,0.00,158.0,meteohub,2013-08-24 11:27:00,
2013-08-24 07:32:00,61.3,54.1,30.24,NNE,19,5.0,12.0,77,0.00,,,0.00,178.0,meteohub,2013-08-24 11:32:00,
2013-08-24 07:37:00,61.7,54.1,30.24,North,5,7.0,12.0,76,0.00,,,0.00,193.0,meteohub,2013-08-24 11:37:00,
2013-08-24 07:42:00,62.1,54.7,30.24,NNE,24,6.0,12.0,77,0.00,,,0.00,216.0,meteohub,2013-08-24 11:42:00,
2013-08-24 07:47:00,62.4,54.3,30.24,North,11,7.0,13.0,75,0.00,,,0.00,229.0,meteohub,2013-08-24 11:47:00,
2013-08-24 07:52:00,62.8,54.7,30.24,NE,38,7.0,13.0,75,0.00,,,0.00,243.0,meteohub,2013-08-24 11:52:00,
2013-08-24 07:57:00,63.1,54.7,30.24,NNE,30,6.0,13.0,74,0.00,,,0.00,257.0,meteohub,2013-08-24 11:57:00,
2013-08-24 08:02:00,63.5,54.7,30.24,North,9,6.0,12.0,73,0.00,,,0.00,276.0,meteohub,2013-08-24 12:02:00,
2013-08-24 08:07:00,64.0,55.2,30.24,NNW,331,12.0,15.0,73,0.00,,,0.00,290.0,meteohub,2013-08-24 12:07:00,
2013-08-24 08:12:00,64.2,55.0,30.25,North,5,7.0,15.0,72,0.00,,,0.00,308.0,meteohub,2013-08-24 12:12:00,
2013-08-24 08:17:00,64.8,55.2,30.25,North,351,6.0,15.0,71,0.00,,,0.00,316.0,meteohub,2013-08-24 12:17:00,
2013-08-24 08:22:00,65.3,55.2,30.25,North,11,6.0,14.0,70,0.00,,,0.00,338.0,meteohub,2013-08-24 12:22:00,
2013-08-24 08:27:00,65.7,55.2,30.25,NNW,327,10.0,13.0,69,0.00,,,0.00,353.0,meteohub,2013-08-24 12:27:00,
2013-08-24 08:32:00,66.0,55.2,30.25,NE,39,7.0,13.0,68,0.00,,,0.00,369.0,meteohub,2013-08-24 12:32:00,
2013-08-24 08:37:00,66.6,55.6,30.25,North,355,2.0,13.0,68,0.00,,,0.00,383.0,meteohub,2013-08-24 12:37:00,
2013-08-24 08:42:00,67.5,56.1,30.25,NNE,19,4.0,11.0,67,0.00,,,0.00,397.0,meteohub,2013-08-24 12:42:00,
2013-08-24 08:47:00,68.0,55.8,30.25,North,5,9.0,11.0,65,0.00,,,0.00,408.0,meteohub,2013-08-24 12:47:00,
2013-08-24 08:52:00,68.4,55.8,30.25,North,355,7.0,11.0,64,0.00,,,0.00,427.0,meteohub,2013-08-24 12:52:00,
2013-08-24 08:57:00,68.7,56.1,30.25,North,355,5.0,16.0,64,0.00,,,0.00,438.0,meteohub,2013-08-24 12:57:00,
2013-08-24 09:02:00,69.4,56.3,30.25,NNE,16,4.0,16.0,63,0.00,,,0.00,457.0,meteohub,2013-08-24 13:02:00,
2013-08-24 09:07:00,70.0,55.9,30.26,NNE,26,7.0,16.0,61,0.00,,,0.00,471.0,meteohub,2013-08-24 13:07:00,
2013-08-24 09:12:00,70.2,56.1,30.26,NNE,18,7.0,11.0,61,0.00,,,0.00,487.0,meteohub,2013-08-24 13:12:00,
2013-08-24 09:17:00,70.5,56.5,30.26,ENE,68,3.0,11.0,61,0.00,,,0.00,503.0,meteohub,2013-08-24 13:17:00,
2013-08-24 09:22:00,71.2,56.7,30.26,North,355,10.0,11.0,60,0.00,,,0.00,515.0,meteohub,2013-08-24 13:22:00,
2013-08-24 09:27:00,71.8,56.7,30.26,North,5,3.0,12.0,59,0.00,,,0.00,529.0,meteohub,2013-08-24 13:27:00,
2013-08-24 09:32:00,72.0,56.8,30.27,ENE,58,8.0,12.0,59,0.00,,,0.00,541.0,meteohub,2013-08-24 13:32:00,
2013-08-24 09:37:00,72.3,56.7,30.27,NE,36,6.0,12.0,58,0.00,,,0.00,554.0,meteohub,2013-08-24 13:37:00,
2013-08-24 09:42:00,73.0,56.5,30.27,North,0,5.0,10.0,56,0.00,,,0.00,568.0,meteohub,2013-08-24 13:42:00,
2013-08-24 09:47:00,73.2,57.0,30.27,NNE,21,2.0,11.0,57,0.00,,,0.00,584.0,meteohub,2013-08-24 13:47:00,
2013-08-24 09:52:00,73.6,57.4,30.27,NNW,346,6.0,11.0,57,0.00,,,0.00,591.0,meteohub,2013-08-24 13:52:00,
2013-08-24 09:57:00,73.9,57.2,30.27,North,0,6.0,11.0,56,0.00,,,0.00,605.0,meteohub,2013-08-24 13:57:00,
2013-08-24 10:02:00,74.7,57.4,30.27,North,5,3.0,12.0,55,0.00,,,0.00,619.0,meteohub,2013-08-24 14:02:00,
2013-08-24 10:07:00,74.8,57.6,30.28,NNE,15,6.0,13.0,55,0.00,,,0.00,629.0,meteohub,2013-08-24 14:07:00,
2013-08-24 10:12:00,75.7,58.5,30.27,NNE,15,3.0,13.0,55,0.00,,,0.00,640.0,meteohub,2013-08-24 14:12:00,
2013-08-24 10:17:00,76.1,58.3,30.28,NNW,337,4.0,9.0,54,0.00,,,0.00,650.0,meteohub,2013-08-24 14:17:00,
2013-08-24 10:22:00,76.1,57.7,30.27,NW,315,5.0,9.0,53,0.00,,,0.00,666.0,meteohub,2013-08-24 14:22:00,
2013-08-24 10:27:00,76.5,56.5,30.28,North,5,4.0,10.0,50,0.00,,,0.00,679.0,meteohub,2013-08-24 14:27:00,
2013-08-24 10:32:00,76.8,56.3,30.28,NNE,29,8.0,11.0,49,0.00,,,0.00,687.0,meteohub,2013-08-24 14:32:00,
2013-08-24 10:37:00,77.2,57.0,30.28,North,9,3.0,13.0,50,0.00,,,0.00,696.0,meteohub,2013-08-24 14:37:00,
2013-08-24 10:43:00,77.2,56.5,30.28,North,5,6.0,13.0,49,0.00,,,0.00,708.0,meteohub,2013-08-24 14:43:00,
2013-08-24 10:48:00,77.4,56.1,30.28,NNE,26,4.0,13.0,48,0.00,,,0.00,717.0,meteohub,2013-08-24 14:48:00,
2013-08-24 10:53:00,77.4,56.7,30.28,ENE,66,5.0,12.0,49,0.00,,,0.00,729.0,meteohub,2013-08-24 14:53:00,
2013-08-24 10:58:00,77.4,55.6,30.28,ENE,62,3.0,12.0,47,0.00,,,0.00,742.0,meteohub,2013-08-24 14:58:00,
2013-08-24 11:03:00,77.7,57.0,30.27,NNE,12,3.0,12.0,49,0.00,,,0.00,749.0,meteohub,2013-08-24 15:03:00,
2013-08-24 11:08:00,78.8,58.1,30.27,NNW,333,1.0,9.0,49,0.00,,,0.00,752.0,meteohub,2013-08-24 15:08:00,
2013-08-24 11:13:00,79.9,57.2,30.27,North,10,2.0,8.0,46,0.00,,,0.00,763.0,meteohub,2013-08-24 15:13:00,
2013-08-24 11:18:00,81.0,57.6,30.27,NW,317,0.0,10.0,45,0.00,,,0.00,773.0,meteohub,2013-08-24 15:18:00,
2013-08-24 11:23:00,80.8,58.1,30.28,NE,43,7.0,10.0,46,0.00,,,0.00,780.0,meteohub,2013-08-24 15:23:00,
2013-08-24 11:29:00,80.2,57.6,30.27,NNE,28,8.0,9.0,46,0.00,,,0.00,786.0,meteohub,2013-08-24 15:29:00,
2013-08-24 11:34:00,81.3,57.9,30.27,North,0,0.0,11.0,45,0.00,,,0.00,795.0,meteohub,2013-08-24 15:34:00,
2013-08-24 11:39:00,80.4,57.2,30.27,East,85,3.0,11.0,45,0.00,,,0.00,800.0,meteohub,2013-08-24 15:39:00,
2013-08-24 11:44:00,79.9,57.2,30.27,SSW,210,2.0,11.0,46,0.00,,,0.00,807.0,meteohub,2013-08-24 15:44:00,
2013-08-24 11:49:00,80.1,56.8,30.27,ENE,65,1.0,11.0,45,0.00,,,0.00,812.0,meteohub,2013-08-24 15:49:00,
2013-08-24 11:54:00,79.9,57.9,30.27,NE,40,1.0,11.0,47,0.00,,,0.00,816.0,meteohub,2013-08-24 15:54:00,
2013-08-24 11:59:00,81.1,57.2,30.27,NNE,32,9.0,11.0,44,0.00,,,0.00,823.0,meteohub,2013-08-24 15:59:00,
2013-08-24 12:04:00,81.9,56.5,30.27,ENE,77,4.0,10.0,42,0.00,,,0.00,828.0,meteohub,2013-08-24 16:04:00,
2013-08-24 12:10:00,81.7,57.6,30.27,NNE,14,9.0,10.0,44,0.00,,,0.00,830.0,meteohub,2013-08-24 16:10:00,
2013-08-24 12:15:00,82.6,56.5,30.27,NNW,332,5.0,11.0,41,0.00,,,0.00,831.0,meteohub,2013-08-24 16:15:00,
2013-08-24 12:20:00,82.6,56.5,30.27,ENE,59,6.0,11.0,41,0.00,,,0.00,833.0,meteohub,2013-08-24 16:20:00,
2013-08-24 12:25:00,81.7,57.0,30.27,ESE,118,6.0,13.0,43,0.00,,,0.00,840.0,meteohub,2013-08-24 16:25:00,
2013-08-24 12:30:00,81.3,56.7,30.27,North,355,2.0,13.0,43,0.00,,,0.00,840.0,meteohub,2013-08-24 16:30:00,
2013-08-24 12:35:00,82.8,56.7,30.27,ENE,58,5.0,10.0,41,0.00,,,0.00,842.0,meteohub,2013-08-24 16:35:00,
2013-08-24 12:40:00,81.7,56.3,30.27,NE,44,4.0,10.0,42,0.00,,,0.00,847.0,meteohub,2013-08-24 16:40:00,
2013-08-24 12:45:00,81.7,56.3,30.27,NE,42,2.0,10.0,42,0.00,,,0.00,849.0,meteohub,2013-08-24 16:45:00,
2013-08-24 12:51:00,82.2,57.6,30.27,NE,35,12.0,12.0,43,0.00,,,0.00,844.0,meteohub,2013-08-24 16:51:00,
2013-08-24 12:56:00,82.2,56.1,30.27,NE,53,6.0,12.0,41,0.00,,,0.00,846.0,meteohub,2013-08-24 16:56:00,
2013-08-24 13:01:00,82.0,55.9,30.27,NNE,14,3.0,12.0,41,0.00,,,0.00,846.0,meteohub,2013-08-24 17:01:00,
2013-08-24 13:06:00,83.8,56.3,30.27,North,351,6.0,12.0,39,0.00,,,0.00,846.0,meteohub,2013-08-24 17:06:00,
2013-08-24 13:11:00,84.4,56.7,30.27,NE,36,0.0,10.0,39,0.00,,,0.00,837.0,meteohub,2013-08-24 17:11:00,
2013-08-24 13:16:00,84.4,56.7,30.27,NE,42,8.0,10.0,39,0.00,,,0.00,838.0,meteohub,2013-08-24 17:16:00,
2013-08-24 13:21:00,84.7,56.3,30.27,ENE,65,4.0,9.0,38,0.00,,,0.00,842.0,meteohub,2013-08-24 17:21:00,
2013-08-24 13:26:00,82.9,55.4,30.27,ESE,121,4.0,10.0,39,0.00,,,0.00,846.0,meteohub,2013-08-24 17:26:00,
2013-08-24 13:31:00,82.9,56.8,30.27,ESE,119,5.0,10.0,41,0.00,,,0.00,837.0,meteohub,2013-08-24 17:31:00,
2013-08-24 13:37:00,78.3,58.6,30.27,SE,128,11.0,11.0,51,0.00,,,0.00,830.0,meteohub,2013-08-24 17:37:00,
2013-08-24 13:42:00,77.5,58.5,30.27,SSW,211,2.0,11.0,52,0.00,,,0.00,830.0,meteohub,2013-08-24 17:42:00,
2013-08-24 13:47:00,79.0,58.8,30.27,SE,132,5.0,11.0,50,0.00,,,0.00,821.0,meteohub,2013-08-24 17:47:00,
2013-08-24 13:52:00,76.6,57.2,30.27,WSW,238,5.0,11.0,51,0.00,,,0.00,824.0,meteohub,2013-08-24 17:52:00,
2013-08-24 13:57:00,76.8,57.9,30.27,South,188,5.0,10.0,52,0.00,,,0.00,821.0,meteohub,2013-08-24 17:57:00,
2013-08-24 14:02:00,76.6,57.7,30.27,SSW,205,4.0,10.0,52,0.00,,,0.00,817.0,meteohub,2013-08-24 18:02:00,
2013-08-24 14:07:00,76.6,58.8,30.27,SE,146,5.0,10.0,54,0.00,,,0.00,807.0,meteohub,2013-08-24 18:07:00,
2013-08-24 14:12:00,76.6,58.3,30.27,South,181,4.0,10.0,53,0.00,,,0.00,803.0,meteohub,2013-08-24 18:12:00,
2013-08-24 14:17:00,76.3,59.0,30.27,SSW,207,7.0,10.0,55,0.00,,,0.00,807.0,meteohub,2013-08-24 18:17:00,
2013-08-24 14:22:00,76.3,59.0,30.27,SW,234,6.0,9.0,55,0.00,,,0.00,809.0,meteohub,2013-08-24 18:22:00,
2013-08-24 14:27:00,75.7,59.0,30.27,South,188,11.0,11.0,56,0.00,,,0.00,812.0,meteohub,2013-08-24 18:27:00,
2013-08-24 14:32:00,75.9,59.5,30.27,SW,230,7.0,11.0,57,0.00,,,0.00,775.0,meteohub,2013-08-24 18:32:00,
2013-08-24 14:37:00,75.4,59.0,30.27,WSW,254,7.0,11.0,57,0.00,,,0.00,770.0,meteohub,2013-08-24 18:37:00,
2013-08-24 14:42:00,75.7,59.0,30.27,SSW,210,5.0,11.0,56,0.00,,,0.00,770.0,meteohub,2013-08-24 18:42:00,
2013-08-24 14:47:00,75.2,58.5,30.27,SSW,196,9.0,12.0,56,0.00,,,0.00,756.0,meteohub,2013-08-24 18:47:00,
2013-08-24 14:52:00,75.6,58.8,30.27,SW,229,6.0,12.0,56,0.00,,,0.00,745.0,meteohub,2013-08-24 18:52:00,
2013-08-24 14:57:00,75.7,58.5,30.27,SW,236,7.0,12.0,55,0.00,,,0.00,712.0,meteohub,2013-08-24 18:57:00,
2013-08-24 15:02:00,75.7,59.0,30.27,SW,224,0.0,12.0,56,0.00,,,0.00,717.0,meteohub,2013-08-24 19:02:00,
2013-08-24 15:07:00,76.6,59.2,30.27,SSE,167,5.0,12.0,55,0.00,,,0.00,722.0,meteohub,2013-08-24 19:07:00,
2013-08-24 15:12:00,75.9,59.2,30.27,South,175,5.0,12.0,56,0.00,,,0.00,722.0,meteohub,2013-08-24 19:12:00,
2013-08-24 15:17:00,76.3,59.0,30.27,SSW,206,3.0,10.0,55,0.00,,,0.00,705.0,meteohub,2013-08-24 19:17:00,
2013-08-24 15:22:00,75.9,58.6,30.27,SW,225,2.0,10.0,55,0.00,,,0.00,700.0,meteohub,2013-08-24 19:22:00,
2013-08-24 15:27:00,75.6,57.7,30.27,SW,230,3.0,10.0,54,0.00,,,0.00,687.0,meteohub,2013-08-24 19:27:00,
2013-08-24 15:32:00,75.7,58.5,30.27,SSW,196,2.0,10.0,55,0.00,,,0.00,663.0,meteohub,2013-08-24 19:32:00,
2013-08-24 15:37:00,76.5,58.6,30.27,SSE,155,8.0,10.0,54,0.00,,,0.00,657.0,meteohub,2013-08-24 19:37:00,
2013-08-24 15:42:00,76.3,58.5,30.27,SSW,200,6.0,10.0,54,0.00,,,0.00,643.0,meteohub,2013-08-24 19:42:00,
2013-08-24 15:47:00,75.7,58.5,30.27,South,176,6.0,11.0,55,0.00,,,0.00,629.0,meteohub,2013-08-24 19:47:00,
2013-08-24 15:52:00,75.6,58.8,30.27,SSW,195,5.0,11.0,56,0.00,,,0.00,617.0,meteohub,2013-08-24 19:52:00,
2013-08-24 15:57:00,76.3,58.5,30.27,South,182,5.0,9.0,54,0.00,,,0.00,606.0,meteohub,2013-08-24 19:57:00,
2013-08-24 16:02:00,76.6,58.3,30.27,SE,138,4.0,10.0,53,0.00,,,0.00,594.0,meteohub,2013-08-24 20:02:00,
2013-08-24 16:07:00,76.6,58.8,30.27,SSE,161,5.0,10.0,54,0.00,,,0.00,577.0,meteohub,2013-08-24 20:07:00,
2013-08-24 16:12:00,75.9,58.1,30.27,SSW,198,5.0,10.0,54,0.00,,,0.00,564.0,meteohub,2013-08-24 20:12:00,
2013-08-24 16:17:00,75.7,58.5,30.27,SSE,167,2.0,10.0,55,0.00,,,0.00,554.0,meteohub,2013-08-24 20:17:00,
2013-08-24 16:22:00,76.3,58.5,30.27,South,184,1.0,10.0,54,0.00,,,0.00,540.0,meteohub,2013-08-24 20:22:00,
2013-08-24 16:27:00,76.3,57.4,30.27,SSW,200,4.0,8.0,52,0.00,,,0.00,526.0,meteohub,2013-08-24 20:27:00,
2013-08-24 16:32:00,76.3,57.9,30.27,ESE,119,2.0,9.0,53,0.00,,,0.00,510.0,meteohub,2013-08-24 20:32:00,
2013-08-24 16:37:00,75.9,57.6,30.27,South,189,4.0,9.0,53,0.00,,,0.00,496.0,meteohub,2013-08-24 20:37:00,
2013-08-24 16:43:00,75.9,58.6,30.27,SSE,162,0.0,10.0,55,0.00,,,0.00,480.0,meteohub,2013-08-24 20:43:00,
2013-08-24 16:48:00,77.0,57.6,30.27,SSE,155,0.0,10.0,51,0.00,,,0.00,469.0,meteohub,2013-08-24 20:48:00,
2013-08-24 16:53:00,76.1,57.2,30.27,SSW,200,5.0,8.0,52,0.00,,,0.00,454.0,meteohub,2013-08-24 20:53:00,
2013-08-24 16:58:00,75.4,57.0,30.27,South,185,3.0,8.0,53,0.00,,,0.00,439.0,meteohub,2013-08-24 20:58:00,
2013-08-24 17:03:00,75.2,58.5,30.27,SSW,196,5.0,8.0,56,0.00,,,0.00,397.0,meteohub,2013-08-24 21:03:00,
2013-08-24 17:08:00,75.4,57.6,30.27,South,184,2.0,8.0,54,0.00,,,0.00,378.0,meteohub,2013-08-24 21:08:00,
2013-08-24 17:13:00,75.4,57.0,30.27,South,175,0.0,8.0,53,0.00,,,0.00,373.0,meteohub,2013-08-24 21:13:00,
2013-08-24 17:19:00,75.4,57.6,30.27,SSW,194,5.0,7.0,54,0.00,,,0.00,376.0,meteohub,2013-08-24 21:19:00,
2013-08-24 17:24:00,75.4,57.6,30.27,South,190,4.0,7.0,54,0.00,,,0.00,359.0,meteohub,2013-08-24 21:24:00,
2013-08-24 17:29:00,75.7,57.4,30.27,SSE,159,2.0,8.0,53,0.00,,,0.00,343.0,meteohub,2013-08-24 21:29:00,
2013-08-24 17:34:00,75.4,57.6,30.27,South,185,3.0,8.0,54,0.00,,,0.00,327.0,meteohub,2013-08-24 21:34:00,
2013-08-24 17:39:00,75.0,58.3,30.27,SSW,211,2.0,8.0,56,0.00,,,0.00,309.0,meteohub,2013-08-24 21:39:00,
2013-08-24 17:44:00,74.8,58.1,30.27,SW,219,1.0,7.0,56,0.00,,,0.00,294.0,meteohub,2013-08-24 21:44:00,
2013-08-24 17:49:00,75.0,58.3,30.27,SW,225,2.0,7.0,56,0.00,,,0.00,279.0,meteohub,2013-08-24 21:49:00,
2013-08-24 17:55:00,74.8,58.1,30.27,SE,130,5.0,8.0,56,0.00,,,0.00,264.0,meteohub,2013-08-24 21:55:00,
2013-08-24 18:00:00,74.8,58.1,30.27,South,173,1.0,8.0,56,0.00,,,0.00,250.0,meteohub,2013-08-24 22:00:00,
2013-08-24 18:05:00,74.7,57.9,30.27,South,181,1.0,7.0,56,0.00,,,0.00,230.0,meteohub,2013-08-24 22:05:00,
2013-08-24 18:10:00,74.7,57.4,30.27,SSW,196,1.0,7.0,55,0.00,,,0.00,214.0,meteohub,2013-08-24 22:10:00,
2013-08-24 18:15:00,74.7,57.9,30.27,South,175,4.0,5.0,56,0.00,,,0.00,193.0,meteohub,2013-08-24 22:15:00,
2013-08-24 18:20:00,74.3,58.1,30.27,South,169,4.0,7.0,57,0.00,,,0.00,174.0,meteohub,2013-08-24 22:20:00,
2013-08-24 18:25:00,73.9,58.3,30.27,SSE,147,7.0,7.0,58,0.00,,,0.00,153.0,meteohub,2013-08-24 22:25:00,
2013-08-24 18:31:00,74.3,58.1,30.27,SSE,157,5.0,7.0,57,0.00,,,0.00,134.0,meteohub,2013-08-24 22:31:00,
2013-08-24 18:36:00,74.1,58.5,30.28,SSE,165,2.0,7.0,58,0.00,,,0.00,116.0,meteohub,2013-08-24 22:36:00,
2013-08-24 18:41:00,73.6,58.3,30.28,South,175,0.0,7.0,59,0.00,,,0.00,98.0,meteohub,2013-08-24 22:41:00,
2013-08-24 18:46:00,73.4,58.3,30.28,SE,146,5.0,6.0,59,0.00,,,0.00,56.0,meteohub,2013-08-24 22:46:00,
2013-08-24 18:51:00,73.0,58.3,30.27,SSE,157,4.0,6.0,60,0.00,,,0.00,23.0,meteohub,2013-08-24 22:51:00,
2013-08-24 18:56:00,72.7,57.9,30.28,SSE,147,0.0,5.0,60,0.00,,,0.00,21.0,meteohub,2013-08-24 22:56:00,
2013-08-24 19:02:00,72.5,58.3,30.28,SSE,147,0.0,5.0,61,0.00,,,0.00,19.0,meteohub,2013-08-24 23:02:00,
2013-08-24 19:07:00,72.1,58.5,30.28,SSE,147,0.0,5.0,62,0.00,,,0.00,16.0,meteohub,2013-08-24 23:07:00,
2013-08-24 19:12:00,72.0,58.6,30.28,SSE,147,0.0,4.0,63,0.00,,,0.00,14.0,meteohub,2013-08-24 23:12:00,
2013-08-24 19:17:00,71.2,58.8,30.28,SSE,147,0.0,1.0,65,0.00,,,0.00,12.0,meteohub,2013-08-24 23:17:00,
2013-08-24 19:22:00,70.5,59.0,30.28,SSE,147,0.0,0.0,67,0.00,,,0.00,11.0,meteohub,2013-08-24 23:22:00,
2013-08-24 19:27:00,70.0,59.0,30.28,SSE,147,0.0,0.0,68,0.00,,,0.00,9.0,meteohub,2013-08-24 23:27:00,
2013-08-24 19:32:00,69.4,59.5,30.28,SSE,147,0.0,0.0,71,0.00,,,0.00,5.0,meteohub,2013-08-24 23:32:00,
2013-08-24 19:37:00,68.9,59.2,30.29,SSE,147,0.0,0.0,71,0.00,,,0.00,0.0,meteohub,2013-08-24 23:37:00,
2013-08-24 19:42:00,68.5,59.5,30.29,SSE,147,0.0,0.0,73,0.00,,,0.00,0.0,meteohub,2013-08-24 23:42:00,
2013-08-24 19:47:00,68.5,59.9,30.29,SSE,147,0.0,0.0,74,0.00,,,0.00,0.0,meteohub,2013-08-24 23:47:00,
2013-08-24 19:52:00,68.0,59.4,30.29,SSE,147,0.0,0.0,74,0.00,,,0.00,0.0,meteohub,2013-08-24 23:52:00,
2013-08-24 19:57:00,67.5,59.2,30.29,SSE,147,0.0,0.0,75,0.00,,,0.00,0.0,meteohub,2013-08-24 23:57:00,
2013-08-24 20:02:00,66.9,59.2,30.30,SSE,147,0.0,0.0,76,0.00,,,0.00,0.0,meteohub,2013-08-25 00:02:00,
2013-08-24 20:07:00,66.7,59.4,30.30,SSE,147,0.0,0.0,77,0.00,,,0.00,0.0,meteohub,2013-08-25 00:07:00,
2013-08-24 20:12:00,66.6,59.2,30.30,SSE,147,0.0,0.0,77,0.00,,,0.00,0.0,meteohub,2013-08-25 00:12:00,
2013-08-24 20:17:00,65.8,59.2,30.30,SSE,147,0.0,0.0,79,0.00,,,0.00,0.0,meteohub,2013-08-25 00:17:00,
2013-08-24 20:22:00,65.7,59.0,30.30,SSE,147,0.0,0.0,79,0.00,,,0.00,0.0,meteohub,2013-08-25 00:22:00,
2013-08-24 20:27:00,65.1,58.8,30.30,SSE,147,0.0,0.0,80,0.00,,,0.00,0.0,meteohub,2013-08-25 00:27:00,
2013-08-24 20:32:00,64.8,58.8,30.30,SSE,147,0.0,0.0,81,0.00,,,0.00,0.0,meteohub,2013-08-25 00:32:00,
2013-08-24 20:37:00,64.6,59.0,30.31,SSE,147,0.0,1.0,82,0.00,,,0.00,0.0,meteohub,2013-08-25 00:37:00,
2013-08-24 20:42:00,64.2,59.0,30.31,SSE,147,0.0,1.0,83,0.00,,,0.00,0.0,meteohub,2013-08-25 00:42:00,
2013-08-24 20:47:00,64.0,58.8,30.31,SSE,147,0.0,0.0,83,0.00,,,0.00,0.0,meteohub,2013-08-25 00:47:00,
2013-08-24 20:52:00,63.9,58.6,30.31,SSE,147,0.0,0.0,83,0.00,,,0.00,0.0,meteohub,2013-08-25 00:52:00,
2013-08-24 20:57:00,63.7,58.8,30.31,SSE,147,0.0,0.0,84,0.00,,,0.00,0.0,meteohub,2013-08-25 00:57:00,
2013-08-24 21:02:00,63.5,58.6,30.31,SSE,147,0.0,0.0,84,0.00,,,0.00,0.0,meteohub,2013-08-25 01:02:00,
2013-08-24 21:07:00,63.1,58.6,30.32,SSE,147,0.0,0.0,85,0.00,,,0.00,0.0,meteohub,2013-08-25 01:07:00,
2013-08-24 21:12:00,63.1,58.6,30.32,SSE,147,0.0,0.0,85,0.00,,,0.00,0.0,meteohub,2013-08-25 01:12:00,
2013-08-24 21:17:00,62.8,58.5,30.32,SSE,147,0.0,0.0,86,0.00,,,0.00,0.0,meteohub,2013-08-25 01:17:00,
2013-08-24 21:22:00,62.4,58.1,30.32,SSE,147,0.0,0.0,86,0.00,,,0.00,0.0,meteohub,2013-08-25 01:22:00,
2013-08-24 21:27:00,62.2,58.3,30.32,SSE,147,0.0,0.0,87,0.00,,,0.00,0.0,meteohub,2013-08-25 01:27:00,
2013-08-24 21:32:00,62.1,58.1,30.32,SSE,147,0.0,0.0,87,0.00,,,0.00,0.0,meteohub,2013-08-25 01:32:00,
2013-08-24 21:37:00,61.9,58.3,30.32,SSE,147,0.0,0.0,88,0.00,,,0.00,0.0,meteohub,2013-08-25 01:37:00,
2013-08-24 21:42:00,61.7,58.1,30.32,SSE,147,0.0,1.0,88,0.00,,,0.00,0.0,meteohub,2013-08-25 01:42:00,
2013-08-24 21:47:00,61.5,58.3,30.32,SSE,147,0.0,1.0,89,0.00,,,0.00,0.0,meteohub,2013-08-25 01:47:00,
2013-08-24 21:52:00,61.3,58.1,30.32,SSE,147,0.0,0.0,89,0.00,,,0.00,0.0,meteohub,2013-08-25 01:52:00,
2013-08-24 21:57:00,61.2,57.9,30.33,SSE,147,0.0,0.0,89,0.00,,,0.00,0.0,meteohub,2013-08-25 01:57:00,
2013-08-24 22:02:00,61.2,58.3,30.32,SSE,147,0.0,0.0,90,0.00,,,0.00,0.0,meteohub,2013-08-25 02:02:00,
2013-08-24 22:07:00,61.0,58.1,30.33,SSE,147,0.0,0.0,90,0.00,,,0.00,0.0,meteohub,2013-08-25 02:07:00,
2013-08-24 22:12:00,60.6,57.7,30.33,SSE,147,0.0,0.0,90,0.00,,,0.00,0.0,meteohub,2013-08-25 02:12:00,
2013-08-24 22:17:00,60.4,57.6,30.32,SSE,147,0.0,0.0,90,0.00,,,0.00,0.0,meteohub,2013-08-25 02:17:00,
2013-08-24 22:22:00,60.4,57.7,30.33,SSE,147,0.0,0.0,91,0.00,,,0.00,0.0,meteohub,2013-08-25 02:22:00,
2013-08-24 22:27:00,60.1,57.4,30.32,SSE,147,0.0,0.0,91,0.00,,,0.00,0.0,meteohub,2013-08-25 02:27:00,
2013-08-24 22:32:00,60.1,57.4,30.33,SSE,147,0.0,0.0,91,0.00,,,0.00,0.0,meteohub,2013-08-25 02:32:00,
2013-08-24 22:37:00,60.1,57.4,30.33,SSE,147,0.0,1.0,91,0.00,,,0.00,0.0,meteohub,2013-08-25 02:37:00,
2013-08-24 22:42:00,60.1,57.4,30.33,SSE,147,0.0,1.0,91,0.00,,,0.00,0.0,meteohub,2013-08-25 02:42:00,
2013-08-24 22:47:00,59.7,57.0,30.33,SSE,147,0.0,1.0,91,0.00,,,0.00,0.0,meteohub,2013-08-25 02:47:00,
2013-08-24 22:52:00,59.5,57.2,30.33,SSE,147,0.0,0.0,92,0.00,,,0.00,0.0,meteohub,2013-08-25 02:52:00,
2013-08-24 22:57:00,59.5,57.2,30.33,SSE,147,0.0,0.0,92,0.00,,,0.00,0.0,meteohub,2013-08-25 02:57:00,
2013-08-24 23:02:00,59.4,57.0,30.33,SSE,147,0.0,0.0,92,0.00,,,0.00,0.0,meteohub,2013-08-25 03:02:00,
2013-08-24 23:07:00,59.0,56.7,30.33,SSE,147,0.0,0.0,92,0.00,,,0.00,0.0,meteohub,2013-08-25 03:07:00,
2013-08-24 23:12:00,59.0,56.7,30.33,SSE,147,0.0,1.0,92,0.00,,,0.00,0.0,meteohub,2013-08-25 03:12:00,
2013-08-24 23:17:00,59.2,56.8,30.33,SSE,147,0.0,1.0,92,0.00,,,0.00,0.0,meteohub,2013-08-25 03:17:00,
2013-08-24 23:22:00,59.0,56.7,30.34,SSE,147,0.0,1.0,92,0.00,,,0.00,0.0,meteohub,2013-08-25 03:22:00,
2013-08-24 23:27:00,58.8,56.5,30.34,SSE,147,0.0,1.0,92,0.00,,,0.00,0.0,meteohub,2013-08-25 03:27:00,
2013-08-24 23:32:00,58.6,56.3,30.34,SSE,147,0.0,0.0,92,0.00,,,0.00,0.0,meteohub,2013-08-25 03:32:00,
2013-08-24 23:37:00,58.6,56.7,30.34,SSE,147,0.0,0.0,93,0.00,,,0.00,0.0,meteohub,2013-08-25 03:37:00,
2013-08-24 23:42:00,58.5,56.5,30.34,SSE,147,0.0,0.0,93,0.00,,,0.00,0.0,meteohub,2013-08-25 03:42:00,
2013-08-24 23:47:00,58.5,56.5,30.34,SSE,147,0.0,0.0,93,0.00,,,0.00,0.0,meteohub,2013-08-25 03:47:00,
2013-08-24 23:52:00,58.5,56.5,30.34,SSE,147,0.0,1.0,93,0.00,,,0.00,0.0,meteohub,2013-08-25 03:52:00,
2013-08-24 23:57:00,58.3,55.9,30.34,SSE,147,0.0,1.0,92,0.00,,,0.00,0.0,meteohub,2013-08-25 03:57:00,